Flag for United Kingdom Weather past 2 weeks in Walsall, England, United Kingdom

Now
72 °F

Passing clouds.


Feels Like: 76 °F
Forecast: 59 / 79 °F
Wind: 12 mph from Northeast

Location: Birmingham / Airport

Current Time: Jul 23, 2014 at 12:29:26 PM

Latest Report: Jul 23, 2014 at 10:50 AM


Visibility: N/A

Pressure: 30.18 "Hg

Humidity: 61%

Dew point: 57 °F

Location of WalsallLocation

Historic Weather in Walsall — Graph

°F

Walsall temperature yesterday

Maximum temperature yesterday: 77 °F (at 3:50 PM)
Minimum temperature yesterday: 59 °F (at 4:50 AM)
Average temperature yesterday: 68 °F

Past Weeks' High & Low Weather Summary

 TemperatureHumidityPressure
High81 °F (Jul 18, 3:20 PM)100% (Jul 17, 1:20 AM)30.30 "Hg (Jul 17, 1:20 AM)
Low54 °F (Jul 14, 2:50 AM)41% (Jul 10, 2:50 PM)29.74 "Hg (Jul 13, 4:20 AM)
Average66 °F72%30.00 "Hg
* Reported Jul 8 10:20 AM — Jul 23 10:50 AM, Walsall, Weather by CustomWeather, © 2014

Note: Actual official high and low records may vary slightly from our data, if they occured in-between our weather recording intervals... More about our weather records

Advertising

Walsall weather history for previous 24 hours

 ConditionsComfort  
Time TempWeatherWind HumidityBarometerVisibility
10:50 AM
Jul 23
72 °FPassing clouds.12 mph61%30.18 "HgN/A
10:20 AM70 °FPassing clouds.12 mph64%30.18 "HgN/A
6:20 AM59 °FPartly sunny.7 mph94%30.24 "Hg4 mi
5:50 AM59 °FPassing clouds.8 mph94%30.24 "Hg4 mi
5:20 AM59 °FPassing clouds.9 mph94%30.24 "Hg4 mi
4:50 AM59 °FPassing clouds.8 mph94%30.24 "Hg4 mi
4:20 AM59 °FPassing clouds.6 mph94%30.24 "Hg4 mi
3:50 AM59 °FPassing clouds.6 mph94%30.24 "Hg4 mi
3:20 AM59 °FPassing clouds.7 mph94%30.24 "Hg4 mi
2:50 AM59 °FLow clouds.7 mph94%30.24 "Hg4 mi
2:20 AM61 °FPassing clouds.7 mph94%30.24 "Hg4 mi
1:50 AM61 °FPassing clouds.6 mph94%30.24 "Hg5 mi
1:20 AM61 °FPassing clouds.7 mph94%30.24 "Hg6 mi
12:50 AM63 °FPassing clouds.6 mph88%30.24 "HgN/A
5:50 PM
Jul 22
77 °FPassing clouds.8 mph47%30.21 "HgN/A
5:20 PM77 °FScattered clouds.10 mph47%30.21 "HgN/A
4:50 PM77 °FPassing clouds.7 mph51%30.21 "HgN/A
4:20 PM77 °FPassing clouds.8 mph47%30.21 "HgN/A
3:50 PM77 °FPassing clouds.7 mph51%30.21 "HgN/A
3:20 PM75 °FPassing clouds.6 mph50%30.21 "HgN/A
2:50 PM75 °FPassing clouds.7 mph50%30.24 "HgN/A
2:20 PM75 °FScattered clouds.8 mph54%30.24 "HgN/A
1:50 PM75 °FScattered clouds.7 mph50%30.24 "HgN/A
1:20 PM73 °FPassing clouds.10 mph57%30.24 "HgN/A
12:50 PM73 °FScattered clouds.7 mph53%30.24 "HgN/A
12:20 PM72 °FPartly sunny.6 mph61%30.24 "HgN/A
Weather by CustomWeather, © 2014

See weather overviewHow to use our weather pages